Location: Orange Harbor Mobile Home Park
(26.6923°N, 81.7937°W)
Time: 03:34:52
(UTC+00:00)

Envisat - Visible Passes

Search period start: 18 June 2021 00:00
Search period end: 28 June 2021 00:00
Orbit: 764 x 766 km, 98.1° (Epoch: 17 June)

Date Brightness Start Highest point End Pass type
(mag) Time Alt. Az. Time Alt. Az. Time Alt. Az.
19 Jun 5.4 09:51:46 10° NE 09:55:41 22° E 09:59:35 10° SSE visible
22 Jun 5.6 09:40:56 10° NE 09:44:09 17° E 09:47:22 10° SE visible
24 Jun 4.8 10:05:06 10° NE 10:09:37 32° E 10:14:08 10° SSE visible
25 Jun 5.8 09:30:33 10° ENE 09:32:37 12° E 09:34:40 10° ESE visible
27 Jun 5.3 09:54:00 10° NE 09:58:06 24° E 10:02:11 10° SSE visible
